Sultan Ismail

Recruteur en chef - Al Ain
3 Févr 2028
Jeudi
Processus

Personnalité

Adaptabilité (18) Ambition (20) Controverse (12) Loyauté (19) Pression (3) Professionnalisme (12) Sportivité (10) Tempérament (4)

Profil

Style d'entraînement Démocratique
Diplôme Continental A
Détermination 14
Gestion des joueurs 8
Motivation 14
Discipline 7
Satisfaction professionnelle
100%
Fatigue
0%
Rôle Recruteur en chef
Salaire 79.3K p/s
Contrat 14.03.2030

Performance

Comportement Bon
Efficacité de l'entraînement
56%
Développement des joueurs
30%
Prévention des blessures
60%
Mise en place tactique
65%

Événements récents

A évalué un joueur maintenant
A participé à une réunion de recrutement maintenant
A voté contre une cible de transfert 7j
A recommandé une cible de transfert 7j
A évalué un joueur 7j
A évalué un joueur 7j
A évalué un joueur 7j
A évalué un joueur 7j

Suivi en cours

113
Joueur Club Statut Capacité Confiance Observé Dernière observation Dernier vote
Esteban Obregón Montevideo City Torque Actif 125 / 108 40% 6 31.01.2028 -
Mehdi Taremi Al Wasl Actif 132 / 133 76% 1 31.01.2028 Approuver
Khalid Al-Ghannam Al-Ettifaq Actif 130 / 123 40% 1 31.01.2028 -
Alejo Dramisino Atlanta Actif 125 / 128 40% 1 31.01.2028 -
Alexis Cuello San Lorenzo Actif 131 / 136 40% 5 28.01.2028 -
Manuel Panaro Gimnasia La Plata Actif 125 / 122 40% 1 28.01.2028 -
Aarón Molinas Defensa y Justicia Actif 121 / 122 40% 1 28.01.2028 -
Francisco González Tijuana Actif 122 / 124 40% 1 27.01.2028 -
Ibrahim Bayesh Al Dhafra Actif 130 / 137 40% 2 26.01.2028 -
Patrick Maswanganyi Orlando Pirates Actif 125 / 127 40% 1 26.01.2028 -
Rodrigo Chagas Juventud Actif 122 / 128 40% 1 26.01.2028 -
Martín Campos Ferro Carril Oeste Actif 127 / 112 40% 2 25.01.2028 -
Rodrigo González Mitre Actif 124 / 101 40% 1 25.01.2028 -
Tomás Silva Platense Actif 121 / 134 40% 1 25.01.2028 -
Malek Janeer Al Wasl Actif 104 / 114 76% 1 07.01.2028 Approuver
Anders Dreyer San Diego Football Club Actif 137 / 135 40% 1 04.01.2028 -
Alan Lescano Argentinos Juniors Actif 137 / 139 40% 1 04.01.2028 -
Bruno Al Jazira Actif 123 / 119 40% 4 31.08.2027 -
Marcelo Torres Gimnasia La Plata Actif 127 / 117 40% 1 31.08.2027 -
Rodrigo Bogarín Barracas Central Actif 116 / 125 40% 1 30.08.2027 -
Facundo Kruspzky Al Wahda Actif 127 / 116 40% 4 29.08.2027 -
Agustín Alaniz Juventud Actif 120 / 101 40% 1 29.08.2027 -
Jorginho Kairat Actif 116 / 111 40% 1 28.08.2027 -
Facundo Batista Penarol Actif 110 / 129 40% 1 28.08.2027 -
Bruno Larregui Juventud Actif 128 / 117 40% 2 26.08.2027 -
Ignacio Russo Tigre Actif 128 / 137 40% 1 26.08.2027 -
Jeremy Ebobisse Los Angeles Football Club Actif 109 / 109 40% 1 26.08.2027 -
Gerónimo Rivera Al Wahda Actif 134 / 137 40% 1 26.08.2027 -
Ousmane Camara Sharjah Actif 127 / 132 40% 4 23.08.2027 -
Husain Norchayev Navbahor Actif 130 / 113 40% 1 23.08.2027 -
Lautaro Guzmán Newell's Old Boys Actif 130 / 132 40% 1 22.08.2027 -
Tai Baribo DC United Actif 134 / 123 40% 1 22.08.2027 -
Miguel Pereira Persebaya Actif 108 / 131 40% 2 21.08.2027 -
Ezekiel Kwame Alladoh Philadelphia Union Actif 113 / 138 40% 1 21.08.2027 -
Maurice Malone Minnesota United FC Actif 130 / 135 40% 1 21.08.2027 -
Cedric Gondo Reggiana Actif 123 / 108 40% 4 20.08.2027 -
Willy Agada Hapoel Haifa Actif 127 / 110 40% 4 20.08.2027 -
Giuseppe Di Serio Spezia Actif 134 / 107 40% 1 17.08.2027 -
Lewis Morgan San Diego Football Club Actif 131 / 123 40% 1 16.08.2027 -
Rabby Nzingoula West Bromwich Albion Actif 120 / 130 40% 1 16.08.2027 -
Felipe Vizeu Sporting Cristal Actif 114 / 123 40% 5 14.08.2027 -
Alonso Martínez New York City Actif 113 / 117 40% 1 14.08.2027 -
Leonardo Candellone Juve Stabia Actif 127 / 115 40% 1 13.08.2027 -
Matías Tissera Instituto Actif 122 / 129 40% 1 13.08.2027 -
Bjarki Bjarkason Südtirol Actif 129 / 112 40% 1 11.08.2027 -
Lorenzo Ignacchiti Empoli Actif 132 / 136 40% 1 11.08.2027 -
Ali Youssef Apollon Actif 126 / 114 40% 1 11.08.2027 -
Juan Giménez Athletic Bilbao Actif 129 / 135 40% 1 10.08.2027 -
Giuseppe Panico Foggia Actif 117 / 102 40% 3 07.08.2027 -
Moussa Koné Al-Ra'ed Actif 118 / 129 40% 4 07.08.2027 -
Ramón Mierez Al Nasr Actif 135 / 117 40% 2 05.08.2027 -
Bernat Guiu Virtus Entella Actif 116 / 126 40% 2 03.08.2027 -
Ronan Hale Gillingham Actif 113 / 120 40% 3 03.08.2027 -
Ezra Mayers West Ham United Actif 123 / 129 40% 1 03.08.2027 -
Godwin Oham Warri Wolves Actif 91 / 94 40% 1 03.08.2027 -
Kian Best Eibar Actif 107 / 100 40% 1 03.08.2027 -
Jay Stansfield Birmingham Actif 125 / 147 40% 3 31.07.2027 -
Relebohile Mofokeng Orlando Pirates Actif 119 / 109 40% 2 30.07.2027 -
Igor Zlatanović Hapoel Beer Sheva Actif 120 / 134 40% 1 30.07.2027 -
Terry Devlin Portsmouth Actif 119 / 139 40% 1 30.07.2027 -
Aaron Collins Milton Keynes Dons Actif 132 / 106 40% 2 27.07.2027 -
Kane Wilson Milton Keynes Dons Actif 114 / 111 40% 2 26.07.2027 -
Ryan Trevitt AFC Wimbledon Actif 110 / 121 40% 1 26.07.2027 -
Jacob Brown Luton Town Actif 116 / 134 40% 1 24.07.2027 -
Gianluca Pugliese Obolon Actif 110 / 97 40% 1 23.07.2027 -
Aaron Morley Wycombe Wanderers Actif 118 / 107 40% 1 23.07.2027 -
Idris El Mizouni Leyton Orient Actif 114 / 123 40% 1 23.07.2027 -
Mfundo Vilakazi Kaizer Chiefs Actif 117 / 107 40% 1 22.07.2027 -
Mihai Lixandru Al-Fateh Actif 124 / 125 40% 1 22.07.2027 -
Giuseppe Sibilli Bari Actif 116 / 128 40% 3 20.07.2027 -
Evidence Makgopa Orlando Pirates Actif 116 / 129 40% 1 20.07.2027 -
Sergio Rodelas Granada Actif 107 / 132 40% 1 19.07.2027 -
Fabrizio Alastra Altamura Actif 112 / 119 40% 1 15.07.2027 -
Jacob Karlstrøm Anorthosis Actif 117 / 116 40% 1 15.07.2027 -
Fashion Sakala Al-Fayha Actif 131 / 131 40% 4 13.07.2027 -
Vladan Kovačević Norwich City Actif 119 / 110 40% 2 12.07.2027 -
Lassina Traoré Shakhtar Actif 125 / 123 40% 1 12.07.2027 -
Williams Williams SuperSport United Actif 128 / 101 40% 1 12.07.2027 -
Erick Mothiba Black Aces Actif 99 / 105 40% 1 10.07.2027 -
Alex Bass Peterborough United Actif 113 / 118 40% 1 09.07.2027 -
Sipho Chaine Orlando Pirates Actif 130 / 111 40% 2 08.07.2027 -
Adrian Šemper Al-Fateh Actif 129 / 144 40% 2 08.07.2027 -
Luca Gemello Perugia Actif 110 / 122 40% 1 08.07.2027 -
Hugo Moura Al-Fayha Actif 127 / 113 40% 1 02.06.2027 -
Firas Ben Larbi Sharjah Actif 123 / 128 40% 2 30.01.2027 -
Moses Cobnan Krasnodar Actif 125 / 123 40% 1 30.01.2027 -
Moussa Dembélé Spartak Moscow Actif 138 / 112 40% 5 29.01.2027 -
Matheus Davó Maccabi Netanya Actif 110 / 111 40% 3 29.01.2027 -
Samuel Kalu Botev Plovdiv Actif 123 / 102 40% 2 29.01.2027 -
Hamdan Omar Zenit Actif 137 / 122 40% 1 28.01.2027 -
Abdelatif Ramdane MC Alger Actif 102 / 119 40% 1 28.01.2027 -
Evgeny Staver Rubin Actif 122 / 117 40% 2 26.01.2027 -
Agustín Anello Spartak Moscow Actif 122 / 123 40% 2 24.01.2027 -
Brayan Gil Baltika Actif 117 / 105 40% 3 22.01.2027 -
Christian Kouamé CSKA Moscow Actif 139 / 141 40% 5 22.01.2027 -
Chinedu Geoffrey Krylya Sovetov Actif 117 / 99 40% 4 20.01.2027 -
Ion Nicolăescu Maccabi Tel Aviv Actif 125 / 114 40% 1 19.01.2027 -
Jacques Siwe Rubin Actif 123 / 102 40% 1 19.01.2027 -
Fahad Al Shamsi Al Shaab Refusé 117 / 118 76% 1 18.01.2027 Refuser
Dinko Horkaš Al Wasl Actif 128 / 128 40% 1 18.01.2027 -
Patrik Demjén MTK Budapest Actif 122 / 111 40% 1 12.01.2027 -
Fedor Lapoukhov CSKA Sofia Actif 120 / 128 40% 1 11.01.2027 -
Daniel Naumov Botev Plovdiv Actif 114 / 98 40% 1 11.01.2027 -
Ruslan Bezrukov Rubin Actif 117 / 111 40% 1 08.01.2027 -
Everton Bala Levski Actif 134 / 125 40% 1 07.01.2027 -
Egas Cacintura Akhmat Grozny Actif 115 / 118 40% 1 05.01.2027 -
Tio Cipot NK Maribor Actif 117 / 116 40% 1 04.01.2027 -
Ali Yavuz Kol Kasimpasa Actif 112 / 104 40% 1 31.08.2026 Plus d'infos
Brahima Diarra Al Wahda Actif 110 / 120 40% 1 26.08.2026 -
Taofeek Ismaheel Qarabag Actif 116 / 118 40% 1 18.08.2026 -
Justin-Noël Kalumba Mallorca Actif 117 / 110 40% 1 10.08.2026 -
Cam Bragg Southampton Actif 113 / 100 40% 1 03.08.2026 -
Jozhua Vertrouwd Rayo Vallecano Actif 112 / 142 40% 1 03.08.2026 -